Theta_e
318 318 318 318 319 319 319 319 319 319 320 321 321 324 324 320 318 320 321 321 321 320 320 321 323 324 325 334 340 343 337 340 342 339 339 346 347 352 351 351 347 349 346 346 349
317 317 317 318 318 318 319 319 319 319 320 320 320 322 325 322 318 318 320 319 320 320 321 322 324 323 328 333 341 340 337 340 339 337 338 342 347 349 351 350 350 350 346 348 349
314 315 316 317 317 317 318 318 319 319 319 320 320 320 324 323 319 319 323 321 320 320 321 323 323 323 326 328 334 340 341 339 340 340 338 341 344 346 350 349 349 350 349 350 349
311 312 313 314 315 316 316 317 318 319 319 319 320 320 323 323 317 324 325 324 320 320 320 323 323 323 326 327 329 334 339 340 340 343 340 341 345 348 347 348 347 348 351 352 352
309 310 310 311 313 315 316 317 317 318 319 319 319 319 321 319 320 320 321 321 320 320 321 324 323 328 329 327 328 330 336 339 341 344 343 343 342 345 345 348 349 351 352 353 353
308 309 310 310 311 312 315 316 316 318 319 319 319 318 320 316 321 320 322 323 320 320 323 324 322 326 329 326 326 336 339 341 342 342 340 342 345 346 348 348 349 352 353 353 353
307 308 309 310 311 311 313 315 315 317 319 320 320 319 320 324 321 321 323 324 324 321 322 322 322 325 327 325 327 340 341 341 341 341 338 343 344 348 347 348 348 352 353 353 352
307 307 309 310 310 311 313 314 315 318 319 320 321 323 323 325 321 322 325 325 324 323 322 321 320 323 326 327 337 338 335 344 341 342 343 344 350 347 347 347 347 348 350 352 352
307 308 309 310 310 311 313 313 316 318 319 325 324 323 325 324 325 324 326 327 323 322 323 322 323 324 325 324 327 329 343 339 342 340 343 344 347 346 347 346 346 347 347 348 350
306 307 308 309 310 311 313 314 315 319 329 326 322 324 324 324 328 328 327 327 324 320 322 321 321 320 321 323 327 339 335 342 344 344 341 345 346 346 347 346 346 346 347 347 347
306 306 307 308 309 311 313 313 319 322 318 320 322 323 324 325 325 327 329 327 326 320 318 320 319 320 320 325 325 329 333 342 341 337 345 345 346 345 346 345 345 346 347 347 347
305 306 306 308 308 310 311 313 316 314 314 319 321 322 324 324 326 328 329 326 321 318 317 318 319 320 322 326 326 327 331 336 336 340 343 345 347 344 343 344 345 345 345 346 347
304 305 306 307 308 310 312 311 313 313 315 320 322 322 322 324 325 326 327 328 322 318 317 317 319 322 327 329 330 326 328 331 337 337 344 346 348 347 345 345 344 345 345 345 346
303 304 305 307 309 309 311 311 313 315 317 320 321 322 322 324 325 326 327 328 321 321 318 319 320 323 328 329 329 329 327 331 336 337 344 344 350 343 345 346 345 347 347 347 346
303 303 304 304 305 308 309 311 316 320 324 322 324 325 323 324 325 324 327 327 322 320 318 319 322 322 325 328 328 329 326 326 333 336 339 341 342 343 342 344 345 345 345 348 348
303 303 303 304 305 308 311 310 318 318 323 325 326 324 324 324 325 325 326 327 326 320 320 319 322 323 323 325 327 328 326 321 324 329 339 342 338 337 345 346 345 343 344 348 349
303 304 303 303 306 307 308 309 316 319 320 324 322 321 322 322 323 324 321 320 320 320 319 321 321 322 326 326 325 323 321 322 329 335 338 330 337 336 338 343 343 342 341 346 348
303 304 306 306 306 306 306 310 319 319 320 320 321 321 323 324 324 324 319 321 318 318 318 318 320 321 323 323 324 321 320 322 324 327 331 325 340 339 335 338 341 341 341 344 346
303 305 306 308 308 307 310 310 315 318 322 323 320 322 321 322 322 323 320 320 321 316 319 317 318 321 323 323 323 323 321 320 321 324 325 324 327 328 334 334 338 338 337 342 345
302 304 307 313 311 307 309 308 311 316 319 320 321 321 322 321 320 321 323 322 321 317 317 317 320 320 322 323 322 323 321 324 320 326 329 326 329 329 334 335 336 335 335 340 344
303 304 308 315 309 311 306 307 310 313 313 317 320 320 320 320 320 321 320 322 322 321 318 315 317 319 322 321 322 325 322 321 320 321 324 326 327 325 331 334 335 335 337 339 343
303 300 313 310 312 308 309 309 313 312 314 314 316 317 318 320 320 320 321 323 325 323 319 316 316 320 319 320 322 321 322 322 324 323 321 323 326 327 329 333 335 335 336 338 341
305 305 308 313 313 313 313 316 316 317 316 313 313 316 319 319 320 321 322 325 327 323 321 316 314 317 319 320 322 323 322 321 319 320 325 328 328 328 329 331 336 336 337 338 340
305 306 313 313 311 311 311 314 317 320 320 321 317 319 321 321 323 322 324 326 327 322 324 321 313 319 322 321 321 325 324 323 323 323 323 325 328 332 329 331 330 336 337 339 339
308 310 309 309 310 307 309 313 317 319 319 321 319 319 325 324 326 326 325 329 330 329 331 318 320 316 320 321 322 324 325 325 325 324 328 326 327 329 329 329 331 337 337 337 339
310 309 310 311 308 308 310 314 315 315 315 318 319 322 324 323 325 330 330 327 329 327 327 317 319 320 321 321 322 323 324 325 326 323 326 324 327 325 329 330 330 334 335 335 336
305 305 308 311 309 310 312 312 314 313 314 315 321 324 325 324 325 326 325 325 326 328 326 318 320 317 323 322 324 326 325 325 328 328 327 327 325 327 330 330 330 332 333 334 336
Wind_Speed
17 17 17 17 17 18 18 18 19 19 20 18 19 18 19 19 20 21 28 25 18 15 18 13 13 7 6 6 5 5 5 3 5 6 5 19 6 14 6 19 10 7 21 30 32
18 18 18 19 18 18 18 18 19 19 20 21 20 18 20 21 22 26 22 20 20 16 16 17 12 9 5 4 4 4 5 7 7 7 9 21 20 22 9 18 4 15 27 33 33
20 19 19 19 20 19 19 19 19 20 21 20 21 20 20 20 23 11 6 12 22 23 19 12 10 5 3 7 9 7 7 6 10 13 29 21 16 7 24 7 19 37 40 38 36
21 22 22 21 20 21 21 20 20 21 21 22 21 21 20 16 7 1 5 4 18 26 22 17 8 6 3 3 7 4 18 9 10 14 20 17 18 10 11 6 30 43 41 40 38
20 22 23 23 22 22 22 21 21 21 22 22 22 21 20 9 23 17 18 9 14 28 26 17 12 8 5 5 9 8 5 20 23 18 23 20 11 9 10 18 30 36 38 38 36
20 20 22 23 24 24 24 23 22 22 22 22 23 22 16 7 9 11 10 8 15 28 25 18 8 10 2 4 1 4 11 15 18 18 15 15 10 12 15 27 31 36 37 38 36
23 22 22 23 24 25 25 25 25 24 23 23 22 22 18 26 18 18 8 9 12 20 21 18 15 3 2 7 6 19 7 9 4 8 6 23 4 6 28 31 29 34 35 38 36
24 24 23 23 24 25 26 25 26 25 24 22 20 17 13 17 16 16 11 10 10 16 14 10 8 5 3 6 5 7 5 9 4 6 13 5 4 12 29 33 29 29 30 36 37
24 24 24 24 24 25 25 25 25 27 25 13 6 6 12 8 9 12 14 10 9 14 15 9 5 5 5 4 5 5 12 3 5 12 4 2 5 18 30 28 27 27 30 32 34
25 26 24 24 25 26 23 24 23 17 8 6 6 5 11 2 5 7 13 12 6 11 11 10 7 3 3 4 7 12 7 9 13 16 7 6 6 18 30 29 28 29 30 33 34
26 26 26 24 24 25 24 22 8 4 14 13 18 22 33 21 18 14 9 15 16 10 6 5 4 7 11 8 7 9 6 15 10 7 5 6 10 20 28 27 26 29 29 31 36
26 26 27 24 23 22 19 6 4 8 17 29 35 35 37 30 15 19 12 10 8 7 4 2 8 10 8 7 8 7 6 8 2 8 6 4 8 18 23 29 33 32 32 36 38
25 27 28 23 22 17 9 7 6 17 6 21 29 33 42 26 20 28 15 10 4 6 5 7 6 8 7 6 8 5 6 6 8 7 6 9 3 9 13 16 24 27 34 32 40
24 24 26 26 14 9 9 8 10 15 3 8 6 6 18 19 9 24 24 15 4 11 6 6 9 8 5 5 7 4 9 8 10 15 8 6 5 9 12 15 13 24 29 36 40
25 24 25 23 22 16 10 8 7 1 5 5 5 4 8 22 10 17 24 21 12 5 7 8 6 6 5 7 7 10 8 9 9 13 6 5 4 6 11 10 20 25 31 36 40
27 24 29 24 23 13 5 11 2 5 8 7 3 3 3 6 7 6 17 21 19 6 3 11 6 6 9 5 9 2 4 7 5 4 5 12 7 5 12 26 26 23 30 36 42
31 24 26 30 22 14 11 10 3 4 4 5 4 5 2 1 5 4 6 8 8 8 6 2 6 3 4 4 3 5 7 3 3 2 6 8 4 9 19 25 25 27 34 38 41
33 27 26 26 20 18 7 3 5 7 8 5 7 9 4 2 3 3 6 9 5 5 5 6 9 8 3 8 7 7 10 7 7 4 6 6 7 9 16 30 35 30 37 35 41
33 30 26 18 13 18 13 3 8 6 4 4 5 4 5 5 5 2 7 10 13 11 8 7 8 4 5 6 11 4 4 9 6 1 4 4 6 8 6 12 22 28 28 35 42
35 32 15 11 9 24 4 6 6 6 5 2 1 2 2 4 7 6 3 5 11 11 7 9 2 6 5 6 6 12 7 2 2 6 5 4 4 5 7 8 11 13 25 36 40
26 15 8 3 15 13 5 8 6 13 13 3 3 5 4 4 5 3 8 11 12 14 14 8 6 6 6 8 9 3 3 3 5 4 7 4 7 8 7 9 17 20 37 37 40
12 4 8 21 1 2 3 7 4 4 12 5 4 5 5 6 7 5 9 8 17 16 13 11 7 11 13 5 3 7 10 9 6 6 1 5 7 5 9 9 18 24 29 37 43
17 9 7 10 1 2 5 4 3 3 7 5 6 6 4 8 5 4 14 22 28 18 16 9 4 5 8 4 1 5 6 6 3 4 8 7 6 2 4 6 19 23 30 38 42
7 3 4 7 2 2 4 6 4 7 4 8 6 6 8 5 7 6 12 13 17 14 33 19 5 12 15 9 6 5 6 8 8 5 6 7 6 4 7 9 9 24 30 39 41
3 4 3 4 3 5 2 4 5 3 5 11 4 11 9 8 6 5 13 8 8 1 4 13 13 8 18 16 7 7 7 7 9 11 10 9 11 10 13 13 20 34 32 33 37
5 5 9 9 10 4 1 2 3 2 4 7 8 11 9 8 7 5 2 3 7 4 3 3 8 9 13 10 14 10 16 12 16 3 5 7 7 8 15 6 9 28 31 33 34
5 6 4 8 4 3 2 5 9 11 10 16 13 5 6 7 7 12 19 20 11 4 1 4 7 6 17 6 6 5 9 10 7 5 5 6 10 6 4 8 19 30 37 40 34
Wind_Direction
331 331 330 331 332 332 331 330 330 328 325 328 330 325 322 312 299 283 265 255 259 232 239 235 221 234 205 202 212 58 51 152 170 175 158 163 139 164 165 141 145 164 168 163 162
327 327 326 325 327 327 327 327 325 325 322 324 328 324 321 315 304 284 277 263 244 229 219 219 220 220 187 176 181 98 128 222 182 173 171 179 161 165 132 162 123 137 151 156 162
324 323 322 321 322 323 323 324 323 321 320 320 324 325 320 317 313 289 228 235 213 207 210 213 204 197 179 170 188 198 208 168 187 192 173 164 173 152 148 195 172 150 155 161 166
324 323 321 319 317 317 318 319 320 317 318 317 319 323 319 311 291 319 332 280 209 198 202 211 206 167 173 208 228 165 233 193 176 154 148 156 152 124 156 228 166 154 158 163 170
325 323 321 319 316 313 311 313 316 314 313 314 314 314 318 287 267 302 269 275 203 194 197 189 167 166 179 201 240 198 187 192 160 154 143 148 132 144 198 158 158 160 163 171 178
325 324 320 317 316 313 310 309 311 310 309 310 309 305 304 263 287 311 240 233 201 196 194 191 198 205 227 245 222 209 158 134 152 153 146 129 131 137 158 156 154 166 171 178 184
323 323 321 317 314 312 310 309 311 307 306 307 301 295 281 270 285 275 237 199 211 212 203 200 200 235 8 324 282 140 94 80 97 159 124 116 70 154 155 160 158 169 177 185 189
321 320 317 317 316 312 310 312 310 306 303 299 293 282 263 287 262 244 209 208 229 217 218 213 213 242 199 301 58 93 35 134 219 191 174 93 183 158 165 166 168 173 182 189 193
320 316 315 315 316 313 310 315 311 306 303 291 276 270 263 269 258 212 210 227 222 214 212 203 194 203 150 106 32 45 168 192 170 213 140 112 136 175 171 174 177 183 186 194 201
319 317 317 317 316 313 313 318 315 310 309 300 257 286 260 296 342 319 246 220 211 190 207 223 196 133 68 115 179 183 180 195 172 201 185 205 167 164 177 175 184 192 197 200 200
319 318 317 317 317 315 318 336 346 330 313 267 268 270 276 277 288 273 264 219 216 177 160 191 137 191 196 186 149 141 179 201 208 163 123 191 153 174 180 186 190 194 200 206 209
319 318 315 318 317 315 319 15 49 328 297 287 278 267 263 262 284 259 245 216 168 193 145 79 214 210 187 149 137 140 179 201 326 159 96 170 174 179 184 194 193 193 199 204 211
320 318 315 319 315 310 328 333 295 320 259 286 267 249 245 236 232 252 239 239 165 174 184 176 228 151 185 157 143 170 175 186 182 157 43 115 5 206 215 214 209 206 209 207 209
319 317 316 318 315 311 330 332 314 313 335 278 267 275 208 204 226 235 236 218 215 195 147 223 246 174 182 202 138 200 204 209 152 163 185 174 213 228 212 219 221 216 212 210 211
317 320 313 313 305 307 306 314 293 215 328 261 277 312 185 174 159 219 223 203 192 198 144 229 212 168 177 201 144 229 152 196 178 184 119 206 105 252 161 222 229 218 214 212 210
315 319 309 307 298 313 279 336 228 50 253 308 318 0 96 243 173 148 175 207 204 202 198 210 234 174 195 213 176 207 98 39 50 125 194 199 164 235 182 214 225 220 216 207 208
313 312 301 295 288 288 285 319 71 166 322 277 326 339 137 297 226 162 146 173 169 176 220 350 242 229 170 250 137 98 80 329 338 356 214 194 144 229 210 215 215 207 209 206 206
311 310 298 287 284 265 250 61 199 217 247 307 328 337 353 107 244 202 146 193 260 113 161 168 237 179 184 186 171 179 160 163 189 204 226 130 202 239 211 221 217 216 210 202 204
315 314 304 305 256 213 172 164 203 198 219 293 336 359 324 25 17 144 204 211 212 178 174 161 253 283 208 190 158 190 156 197 142 351 101 215 276 329 297 213 204 205 198 204 205
326 321 312 325 224 173 117 223 219 221 345 10 243 235 308 8 10 33 300 219 222 186 170 213 255 213 234 181 222 197 165 91 353 166 233 249 242 219 224 207 204 190 196 206 206
331 320 320 303 163 177 177 219 231 254 280 230 245 254 234 310 208 253 239 274 234 212 193 154 155 265 143 195 200 141 181 77 128 147 174 224 256 214 227 194 186 195 202 204 202
349 325 341 143 137 213 187 195 220 241 283 263 258 248 235 267 265 277 241 229 247 199 183 199 176 233 230 229 193 183 209 182 205 246 198 168 259 232 223 201 188 199 198 205 212
324 283 201 210 216 263 300 294 277 218 235 218 240 230 356 291 288 221 290 287 298 209 190 169 207 212 320 331 180 181 192 176 132 98 186 158 249 269 200 181 199 185 197 209 214
302 324 307 241 276 52 0 272 254 267 268 263 243 238 264 227 230 280 282 287 303 207 206 158 140 200 226 220 161 186 191 195 159 153 169 209 201 247 214 181 196 214 200 205 211
276 270 342 309 343 327 221 278 284 281 256 268 257 208 205 196 228 256 276 280 297 300 217 166 195 178 227 217 193 234 227 198 189 192 181 212 194 211 206 198 203 208 212 204 209
319 345 336 295 298 291 259 254 279 347 273 283 218 224 202 192 189 217 300 260 247 318 353 253 210 161 228 215 200 222 245 223 225 181 115 131 223 218 210 168 162 196 199 204 205
317 314 302 290 308 325 204 346 298 319 270 236 284 286 219 230 229 203 248 256 246 259 252 167 181 143 229 175 174 223 222 199 171 152 155 147 219 155 168 192 196 203 202 202 202